Regional Weather Roundup
Issued by NWS Charleston, SC

Home | Current Version | Previous Version | Text Only | Print | Product List | Glossary On
Versions: 1 2 3 4 5 6 7 8 9 10 11 12 13 14 15 16 17 18 19 20 21 22 23 24 25 26 27 28 29 30 31 32 33 34 35 36 37 38 39 40 41 42 43 44 45 46 47 48 49 50
000
ASUS42 KCHS 061228
RWRCHS

REGIONAL WEATHER ROUNDUP
NATIONAL WEATHER SERVICE CHARLESTON SC
800 AM EDT FRI MAY 06 2016

NOTE: "FAIR" INDICATES FEW OR NO CLOUDS BELOW 12,000 FEET WITH NO
SIGNIFICANT WEATHER AND/OR OBSTRUCTIONS TO VISIBILITY.

NOT ALL STATIONS ARE QUALITY CONTROLLED. USE DATA WITH CAUTION...
ESPECIALLY DEWPOINT OBSERVATIONS.

SCZ027-030-031-034>040-042>050-061300-
...SOUTHEAST SOUTH CAROLINA...

CITY           SKY/WX    TMP DP  RH WIND       PRES   REMARKS
N CHARLESTON   PTSUNNY   52  45  77 W10       29.82R
6HR MIN TEMP:  49; 6HR MAX TEMP:  52;

WATERFRONT PRK   N/A     53  47  79 W7        29.79R
MOUNT PLEASANT FAIR      57  46  67 W7        29.81R
JOHNS ISLAND   CLOUDY    55  46  71 W12       29.83R
PINOPOLIS        N/A     55  48  76 W8        29.72R
MONCKS CORNER  CLOUDY    50  43  76 CALM      29.81R
SUMMERVILLE    CLOUDY    50  50 100 W3        29.82R
BEAUFORT MCAS  PTSUNNY   51  46  83 W6        29.84R
6HR MIN TEMP:  48; 6HR MAX TEMP:  54;

BEAUFORT ARPT  CLOUDY    54  46  76 W9        29.84R
HILTON HEAD IS SUNNY     55  52  88 W6        29.85R
WALTERBORO     CLOUDY    54  46  76 W6        29.84R
ALLENDALE      CLOUDY    50  45  81 CALM      29.85R

...SOUTHERN MIDLANDS AND PEE DEE...

CITY           SKY/WX    TMP DP  RH WIND       PRES   REMARKS
GEORGETOWN     FAIR      52  45  76 NW9       29.80R
KINGSTREE      PTSUNNY   54  45  71 W7        29.79R
ORANGEBURG     CLOUDY    54  45  71 W9        29.82R
6HR MIN TEMP:  49; 6HR MAX TEMP:  54;

BARNWELL       CLOUDY    54  48  82 SW6       29.85R
AIKEN          CLOUDY    46  43  87 W6        29.87R
MANNING        PTSUNNY   54  46  76 NW3       29.79S
COLUMBIA       PTSUNNY   56  46  69 W8        29.80R
6HR MIN TEMP:  53; 6HR MAX TEMP:  56;

SUMTER         CLOUDY    54  46  73 W9        29.77R
6HR MIN TEMP:  50; 6HR MAX TEMP:  54;

FLORENCE       CLOUDY    53  47  79 NW8       29.78R
6HR MIN TEMP:  50; 6HR MAX TEMP:  54;

MYRTLE BEACH   CLOUDY    52  43  71 NW8       29.79R
N MYRTLE BEACH CLOUDY    51  48  89 W5        29.76R
6HR MIN TEMP:  47; 6HR MAX TEMP:  51;


$$

GAZ063-065-086>088-099>101-113>116-118-119-134>141-150-061300-
...SOUTHEAST GEORGIA...

CITY           SKY/WX    TMP DP  RH WIND       PRES   REMARKS
SAVANNAH ARPT  MOSUNNY   51  44  77 W5        29.86R
6HR MIN TEMP:  48; 6HR MAX TEMP:  53;

HUNTER AAF     MOSUNNY   51  47  86 W5        29.83R
6HR MIN TEMP:  46; 6HR MAX TEMP:  53;

FORT STEWART   SUNNY     51  44  76 NW6       29.84R
6HR MIN TEMP:  47; 6HR MAX TEMP:  53;

STATESBORO     SUNNY     55  49  82 NW7       29.87R
SYLVANIA       SUNNY     52  47  84 W5        29.87R
CLAXTON        FAIR      51  47  84 W6        29.89R

...CSRA...CENTRAL AND FAR SOUTHEAST GEORGIA...

CITY           SKY/WX    TMP DP  RH WIND       PRES   REMARKS
THOMSON        SUNNY     51  47  86 NW6       29.90R
AUGUSTA-BUSH   SUNNY     50  44  80 W3        29.84R
6HR MIN TEMP:  44; 6HR MAX TEMP:  50;

AUGUSTA-DANIEL SUNNY     51  41  68 NW10      29.84R
SWAINSBORO     FAIR      48  43  81 NW7       29.88R
VIDALIA        SUNNY     52  43  71 NW5       29.89R
EASTMAN        FAIR      51  45  79 NW3       29.92S
HAZLEHURST     FAIR      51  45  79 NW3       29.89R
ALMA           SUNNY     50  43  77 W7        29.89R
6HR MIN TEMP:  47; 6HR MAX TEMP:  52;

WAYCROSS       SUNNY     52  44  75 NW8       29.90R
JESUP          FAIR      54  46  76 NW10      29.88S
BAXLEY         FAIR      52  45  76 NW6       29.89R
BRUNSWICK      SUNNY     59  50  72 W7        29.89R
SAINT SIMONS   SUNNY     52  44  74 NW10G18   29.87R
6HR MIN TEMP:  50; 6HR MAX TEMP:  57;


$$

SCZ027-028-034-036>038-045-046-048>050-GAZ119-141-061300-
...LAKE AND SUPPLEMENTAL COASTAL OBSERVATIONS...

STATION/POSITION TIME  TEMP    WIND        PRES    WAVE   SWELL
                       AIR SEA DIR/SP/G            HT/PER HT/PER/DIR
                 (UTC) (F)     (DEG/KT/KT) (MB)    (FT/S) (FT/S/D)
WINYAH BAY       1100   50     290/  7     1007.0
LAKE MURRAY      1100   54     290/  5/  8 1008.5R
ACE BASIN NERRS  1100   49     270/  1     1009.0S
FORT PULASKI     1200   54 71  290/  9/ 12 1011.0R
SAPELO ISLAND    1200   54     300/ 10     1011.0S

$$

ANZ835-935-AMZ111-154-330-350-352-354-370-450-454-472-061300-
...C-MAN AND BUOY OBSERVATIONS...

STATION/POSITION TIME  TEMP    WIND        PRES    WAVE   SWELL
                       AIR SEA DIR/SP/G            HT/PER HT/PER/DIR
                 (UTC) (F)     (DEG/KT/KT) (MB)    (FT/S) (FT/S/D)
BUOY 41004       1150   58 72  310/ 16/ 19 1008.5R   4/ 5
BUOY 41008       NOT AVBL
FOLLY BEACH CMAN 1200   55     290/  9/ 14 1009.6R
CAPERS NEARSHORE 1108   55 69  310/ 14/ 17 1007.9R
FRIPP NEARSHORE  1208   57 68  300/ 12/ 16 1009.5R


STATION/POSITION TIME  TEMP    WIND        PRES    WAVE   SWELL
                       AIR SEA DIR/SP/G            HT/PER HT/PER/DIR
                 (UTC) (F)     (DEG/KT/KT) (MB)    (FT/S) (FT/S/D)
5E ST. MARYS GA  1121      70                N/A     3/ 4
FRYING PAN BUOY  1200   58 72  270/ 17/ 21 1006.8R
BUOY 41025       1150   59 76  350/  6/ 10 1004.7R   5/ 8   5/ 80/ 8
CAPE LOOKOUT NC  1200   56     240/ 11/ 13 1005.1R
BUOY 41002       1150   68 73  240/  6/ 10 1007.4R   9/ 7   8/250/ 7
BUOY 41010       1120   72 79  300/ 16/ 19 1008.6R
ST AUGUSTINE FL  1200   56 68  300/  7/  9 1012.7R


$$



USA.gov is the U.S. government's official web portal to all federal, state and local government web resources and services.